Tracking 20083 objects as of 8-Dec-2019
HD Live streaming from Space Station
objects crossing your sky now

FENGYUN 1C DEB

Track FENGYUN 1C DEB now!
10-day predictions


NORAD ID: 31660
Int'l Code: 1999-025CBS
Perigee: 749.5 km
Apogee: 912.7 km
Inclination: 98.6 °
Period: 101.4 minutes
Semi major axis: 7202 km
RCS: 0.0107 m2 (small)
Launch date: May 10, 1999
Source: People's Republic of China (PRC)
Launch site: Taiyaun Space Center, China (TSC)

Note: This is SATELLITE DEBRIS
aabbcc
Your satellite tracking list
Your tracking list is empty




NASA's NSSDC Master Catalog

Two Line Element Set (TLE):
1 31660U 99025CBS 19339.91116150 +.00000227 +00000-0 +11772-3 0  9992
2 31660 098.6412 014.5461 0113288 092.0527 269.3628 14.20407013354311
Source of the keplerian elements: AFSPC